Weather History for Evergreen, AL

Change the Weather History Date:

Sunday, March 9, 2014

  Actual Average (KPRN) Record (KPRN)
Temperature  
Mean Temperature 60 °F -  
Max Temperature 75 °F 71 °F 85 °F (1974)
Min Temperature 46 °F 43 °F 26 °F (1957)
Degree Days  
Heating Degree Days 4    
Growing Degree Days 10 (Base 50)    
Moisture  
Dew Point 47 °F    
Average Humidity 70    
Maximum Humidity 93    
Minimum Humidity 34    
Precipitation  
Precipitation 0.00 in - - ()
Sea Level Pressure  
Sea Level Pressure 30.18 in    
Wind  
Wind Speed 1 mph (NW)    
Max Wind Speed 5 mph    
Max Gust Speed -    
Visibility 9 miles    
Events      
Averages and records for this station are not official NWS values.
T = Trace of Precipitation, MM = Missing Value Source: NWS Daily Summary

Daily Weather History Graph

Daily Weather History Graph

Search for Another Location

Airport:

Trip Planner

Search our weather history database for the weather conditions in past years. The results will help you decide how hot, cold, wet, or windy it might be!

Date:

Astronomy

Mar. 09, 2014 Rise Set
Actual Time 7:05 AM CDT 6:52 PM CDT
Civil Twilight 6:41 AM CDT 7:16 PM CDT
Nautical Twilight 6:13 AM CDT 7:44 PM CDT
Astronomical Twilight 5:45 AM CDT 8:12 PM CDT
Moon 1:00 PM CDT (3/9) 3:15 AM CDT (3/9)
Length of Visible Light 12h 35m
Length of Day
11h 46m
First Quarter, 61% of the Moon is Illuminated
Mar 9
First Quarter
Mar 16
Full
Mar 23
Last Quarter
Mar 30
New
Apr 7
First Quarter

Hourly Weather History & Observations

Time (CDT) Temp. Dew Point Humidity Pressure Visibility Wind Dir Wind Speed Gust Speed Precip Events Conditions
12:53 AM 51.1 °F 48.0 °F 89% 30.19 in 10.0 mi Calm Calm - N/A   Clear
1:53 AM 51.1 °F 46.9 °F 86% 30.18 in 10.0 mi Calm Calm - N/A   Clear
3:53 AM 46.9 °F 45.0 °F 93% 30.17 in 2.5 mi Calm Calm - N/A   Clear
4:07 AM 48.0 °F 45.0 °F 89% 30.18 in 5.0 mi Calm Calm - N/A   Partly Cloudy
4:53 AM 46.9 °F 44.1 °F 90% 30.19 in 7.0 mi Calm Calm - N/A   Scattered Clouds
5:53 AM 46.9 °F 44.1 °F 90% 30.19 in 8.0 mi Calm Calm - N/A   Clear
6:53 AM 46.9 °F 44.1 °F 90% 30.22 in 7.0 mi Calm Calm - N/A   Clear
7:53 AM 48.0 °F 44.1 °F 86% 30.22 in 9.0 mi Calm Calm - N/A   Clear
8:53 AM 55.0 °F 50.0 °F 83% 30.23 in 10.0 mi Calm Calm - N/A   Clear
9:53 AM 61.0 °F 53.1 °F 75% 30.23 in 10.0 mi Calm Calm - N/A   Clear
10:53 AM 69.1 °F 52.0 °F 54% 30.22 in 10.0 mi Calm Calm - N/A   Clear
11:53 AM 72.0 °F 48.9 °F 44% 30.23 in 10.0 mi Calm Calm - N/A   Partly Cloudy
12:53 PM 73.0 °F 48.9 °F 42% 30.21 in 10.0 mi Variable 4.6 mph - N/A   Mostly Cloudy
1:53 PM 73.0 °F 46.9 °F 39% 30.18 in 10.0 mi Variable 3.5 mph - N/A   Mostly Cloudy
2:53 PM 73.0 °F 45.0 °F 37% 30.16 in 10.0 mi NW 4.6 mph - N/A   Mostly Cloudy
3:53 PM 75.0 °F 46.0 °F 36% 30.14 in 10.0 mi Calm Calm - N/A   Clear
4:53 PM 75.0 °F 45.0 °F 34% 30.12 in 10.0 mi NW 4.6 mph - N/A   Clear
5:53 PM 75.0 °F 45.0 °F 34% 30.12 in 10.0 mi NNW 3.5 mph - N/A   Clear
6:53 PM 66.9 °F 48.0 °F 51% 30.12 in 10.0 mi Calm Calm - N/A   Clear
7:53 PM 60.1 °F 51.1 °F 72% 30.14 in 10.0 mi Calm Calm - N/A   Clear
8:53 PM 57.0 °F 51.1 °F 81% 30.17 in 10.0 mi Calm Calm - N/A   Clear
9:53 PM 54.0 °F 50.0 °F 86% 30.18 in 10.0 mi Calm Calm - N/A   Clear
10:53 PM 53.1 °F 48.9 °F 86% 30.18 in 10.0 mi Calm Calm - N/A   Clear
11:53 PM 52.0 °F 48.0 °F 86% 30.17 in 10.0 mi Calm Calm - N/A   Clear
12:53 AM 50.0 °F 46.0 °F 86% 30.16 in 8.0 mi Calm Calm - N/A   Clear